Location: Sungai Laei
(2.6000°N, 113.7167°E)
Time: 12:23:19
(UTC+00:00)

Cosmos 2251 Rocket - Visible Passes

Search period start: 26 September 2022 00:00
Search period end: 06 October 2022 00:00
Orbit: 764 x 791 km, 74.0° (Epoch: 25 September)

Date Brightness Start Highest point End Pass type
(mag) Time Alt. Az. Time Alt. Az. Time Alt. Az.
26 Sep 5.7 20:11:11 10° NNE 20:15:17 23° ENE 20:19:22 10° SE visible
27 Sep 6.4 19:39:12 10° NE 19:41:11 12° ENE 19:43:10 10° E visible
27 Sep 4.0 21:18:25 10° NW 21:23:12 37° WSW 21:27:59 10° SSW visible
28 Sep 3.3 20:45:46 22° NNW 20:49:08 72° WSW 20:54:21 10° S visible
29 Sep 3.9 20:15:00 60° ENE 20:15:05 60° ENE 20:20:14 10° SSE visible
30 Sep 5.7 19:43:30 21° ESE 19:43:30 21° ESE 19:45:36 10° SE visible
30 Sep 5.2 21:24:06 14° WSW 21:24:06 14° WSW 21:25:48 10° SW visible
01 Oct 5.3 20:52:08 16° SSW 20:52:08 16° SSW 20:53:20 10° SSW visible
02 Oct 5.9 20:19:53 10° S 20:19:53 10° S 20:19:58 10° S visible
